Hourly Data Report for December 13, 2019

All times are specified in Local Standard Time (LST). Add 1 hour to adjust for Daylight Saving Time where and when it is observed.

KELOWNA UBCO
BRITISH COLUMBIA
Current Station Operator: ECCC - MSC

49°56'26.700" N
119°24'00.760" W
456.00 m
1123996
71644
VKU

Download Data

Hourly Data (December 2019)
Hourly Data Report for December 13, 2019
TIME Temp Definition
°C
Dew Point Definition
°C
Rel Hum Definition
%
Wind Dir Definition
10's deg

Wind Spd Definition
km/h
Visibility Definition
km
Stn Press Definition
kPa
Hmdx Definition


Wind Chill Definition


Weather Definition


00:00 0.4 -0.6 93       95.96     LegendNANA
01:00 0.6 -0.6 92       96.01     LegendNANA
02:00 0.7 -0.8 90       96.10     LegendNANA
03:00 0.9 -0.6 90       96.14     LegendNANA
04:00 1.2 -0.6 88       96.17     LegendNANA
05:00 1.4 -0.6 87       96.19     LegendNANA
06:00 1.3 -0.6 87       96.22     LegendNANA
07:00 1.0 -0.7 88       96.25     LegendNANA
08:00 1.1 -0.6 88       96.27     LegendNANA
09:00 1.4 -0.7 86       96.32     LegendNANA
10:00 1.7 -0.9 83       96.36     LegendNANA
11:00 2.0 -1.3 78       96.32     LegendNANA
12:00 2.2 -1.2 78       96.30     LegendNANA
13:00 2.3 -1.3 77       96.24     LegendNANA
14:00 2.2 -1.6 76       96.21     LegendNANA
15:00 2.2 -1.4 77       96.21     LegendNANA
16:00 1.7 -1.4 80       96.20     LegendNANA
17:00 1.3 -1.3 82       96.20     LegendNANA
18:00 0.7 -1.1 88       96.17     LegendNANA
19:00 0.5 -1.1 89       96.16     LegendNANA
20:00 1.1 -0.9 86       96.14     LegendNANA
21:00 1.2 -0.7 87       96.10     LegendNANA
22:00 0.9 -0.9 88       96.10     LegendNANA
23:00 1.1 -1.2 85       96.09     LegendNANA

Notes on Data Quality.

Legend

  • E = Estimated
  • M = Missing
  • NA = Not Available
Date modified: